Location: ??
(35.1715°N, 139.6450°E)
Time: 16:42:43
(UTC+00:00)

ADEOS II - Pass Details

Date: 05 August 2024
Orbit: 795 x 798 km, 98.7° (Epoch: 18 September)

Event Time Altitude Azimuth Distance (km) Brightness Sun altitude
Rises 17:23:30 0° 7° (N) 3,308 6.1 -26.3°
Reaches altitude 10° 17:25:52 10° 3° (N) 2,374 5.2 -26.0°
Enters shadow 17:30:55 53° 289° (WNW) 970 2.3 -25.3°
